Find Starlink 3232

NORAD ID: 50809 Int'l Des: 2022-001 Owner: SPXS Country: US Constellation: starlink operational
LEOCIRCULAR

現在のビュー

3D地球を読み込み中...

About Starlink 3232

Starlink 3232 (NORAD 50809) is a starlink constellation satellite (v1.5) launched Jan 6, 2022 by SPXS of US. It operates in LEO, CIRCULAR orbit with a mass of 297.00 kg.

Starlink 3232について

説明を読み込み中...

次回通過

Passes for default location (London). Set your location on the main map for personalized predictions.

高度履歴

Loading altitude history...

軌道要素

1 50809U 22001G 26167.04439449 .00000095 00000-0 24067-4 0 9993
2 50809 53.1613 77.5009 0001348 94.2725 265.8420 15.08830973245390
Epoch: Jun 16, 2026 • Age: 7 hours

現在のステータス

高度 540.1 km
速度 7.59 km/s
衛星直下点 3.64°N, 134.14°W
打ち上げ日 Jan 6, 2022
運用期間 4.4 years
タイプ internet

技術仕様

分類 Payload
質量 297.00 kg
乾燥質量 275.00 kg
総質量 297.00 kg
長さ 0.20 m
直径 2.80 m
スパン 9.00 m
形状 Box + pan
製造者 SPXS
バスタイプ Starlink
フェーズステータス In Orbit
所有者/国 SPXS/US

Most Searched